Weather History for KBGR - November, 2012

Change the Weather History Date:

Friday, November 2, 2012

  Actual Average Record
Temperature  
Mean Temperature 47 °F 42 °F  
Max Temperature 54 °F 51 °F 67 °F (1979)
Min Temperature 39 °F 32 °F 17 °F (1947)
Degree Days  
Heating Degree Days 18 23  
Month to date heating degree days 36 46  
Since 1 July heating degree days 719 872  
Cooling Degree Days 0 0  
Month to date cooling degree days 0 0  
Year to date cooling degree days 395 318  
Moisture  
Dew Point 42 °F    
Average Humidity 80    
Maximum Humidity 100    
Minimum Humidity 59    
Precipitation  
Precipitation T in 0.13 in 1.75 in (1988)
Month to date precipitation T 0.27  
Year to date precipitation 37.58 34.52  
Snow  
Snow 0.00 in 0.00 in 0.50 in (1951)
Month to date snowfall 0.0 0.0  
Since 1 July snowfall 0.0 0.1  
Since 1 September snowfall 0.0 0.1  
Snow Depth 0.00 in    
Sea Level Pressure  
Sea Level Pressure 29.51 in    
Wind  
Wind Speed 2 mph (NW)    
Max Wind Speed 9 mph    
Max Gust Speed 10 mph    
Visibility 10 miles    
Events Rain    
T = Trace of Precipitation, MM = Missing Value Source: NWS Daily Summary

Daily Weather History Graph

Daily Weather History Graph

Search for Another Location

Airport or City:

Trip Planner

Search our weather history database for the weather conditions in past years. The results will help you decide how hot, cold, wet, or windy it might be!

Date:

Astronomy

Nov. 02, 2012 Rise Set
Actual Time 7:15 AM EDT 5:21 PM EDT
Civil Twilight 6:44 AM EDT 5:52 PM EDT
Nautical Twilight 6:10 AM EDT 6:26 PM EDT
Astronomical Twilight 5:35 AM EDT 7:00 PM EDT
Moon 8:00 PM EDT (11/2) 10:38 AM EDT (11/2)
Length of Visible Light 11h 07m
Length of Day
10h 06m
Waning Gibbous, 87% of the Moon is Illuminated
Nov 2
Waning Gibbous
Nov 6
Last Quarter
Nov 13
New
Nov 20
First Quarter
Nov 28
Full

Hourly Weather History & Observations

Time (EDT) Temp. Windchill Dew Point Humidity Pressure Visibility Wind Dir Wind Speed Gust Speed Precip Events Conditions
12:53 AM 39.9 °F - 39.9 °F 100% 29.50 in 10.0 mi Calm Calm - N/A   Scattered Clouds
1:53 AM 39.9 °F - 39.9 °F 100% 29.50 in 10.0 mi Calm Calm - N/A   Overcast
2:53 AM 42.1 °F - 41.0 °F 96% 29.50 in 10.0 mi Calm Calm - N/A   Overcast
3:53 AM 43.0 °F 41.3 °F 42.1 °F 97% 29.49 in 10.0 mi South 3.5 mph - N/A   Overcast
4:53 AM 43.0 °F - 42.1 °F 97% 29.49 in 10.0 mi Calm Calm - 0.00 in Rain Light Rain
5:53 AM 43.0 °F 41.3 °F 42.1 °F 97% 29.50 in 10.0 mi South 3.5 mph - 0.00 in   Overcast
6:53 AM 43.0 °F - 42.1 °F 97% 29.50 in 10.0 mi Calm Calm - 0.00 in   Overcast
7:53 AM 43.0 °F - 42.1 °F 97% 29.51 in 9.0 mi Calm Calm - N/A   Mostly Cloudy
8:53 AM 45.0 °F - 43.0 °F 93% 29.52 in 10.0 mi Calm Calm - N/A   Mostly Cloudy
9:53 AM 48.0 °F - 43.0 °F 83% 29.51 in 10.0 mi Calm Calm - N/A   Mostly Cloudy
10:53 AM 51.1 °F - 42.1 °F 71% 29.51 in 10.0 mi SSW 4.6 mph - N/A   Mostly Cloudy
11:53 AM 53.1 °F - 41.0 °F 64% 29.49 in 10.0 mi Calm Calm - N/A   Mostly Cloudy
12:53 PM 52.0 °F - 37.9 °F 59% 29.48 in 10.0 mi Calm Calm - N/A   Mostly Cloudy
1:53 PM 52.0 °F - 41.0 °F 66% 29.48 in 10.0 mi WNW 3.5 mph - N/A   Overcast
2:53 PM 52.0 °F - 39.9 °F 63% 29.48 in 10.0 mi NW 3.5 mph - N/A   Overcast
3:53 PM 52.0 °F - 42.1 °F 69% 29.49 in 10.0 mi Calm Calm - N/A   Overcast
4:53 PM 50.0 °F - 42.1 °F 74% 29.50 in 10.0 mi North 6.9 mph - N/A   Overcast
5:53 PM 48.9 °F - 43.0 °F 80% 29.52 in 10.0 mi North 6.9 mph - N/A   Overcast
6:53 PM 48.9 °F - 44.1 °F 83% 29.53 in 10.0 mi North 5.8 mph - N/A   Overcast
7:53 PM 48.0 °F - 44.1 °F 86% 29.53 in 10.0 mi NNW 5.8 mph - N/A   Overcast
8:53 PM 46.9 °F - 44.1 °F 90% 29.55 in 10.0 mi NW 5.8 mph - N/A   Overcast
9:53 PM 46.0 °F 43.1 °F 44.1 °F 93% 29.55 in 10.0 mi NW 5.8 mph - N/A   Overcast
10:23 PM 46.4 °F 42.9 °F 42.8 °F 87% 29.55 in 10.0 mi NW 6.9 mph - N/A   Overcast
10:32 PM 46.4 °F 44.3 °F 42.8 °F 87% 29.55 in 10.0 mi NW 4.6 mph - N/A   Overcast
10:53 PM 45.0 °F 40.6 °F 41.0 °F 86% 29.55 in 10.0 mi NW 8.1 mph - N/A   Overcast
11:03 PM 44.6 °F 40.7 °F 41.0 °F 87% 29.55 in 10.0 mi NW 6.9 mph - N/A   Overcast
11:53 PM 45.0 °F 41.8 °F 39.0 °F 80% 29.55 in 10.0 mi WNW 5.8 mph - N/A   Overcast